CFG2WP EDDH-LEPA

Flight info

Callsign CFG2WP
Flight time 2h 26m
Altitude 38000
Route HABFU1G HABFU Y348 MAWEQ DCT ASBON/N0447F370 DCT ELVET DCT OBORN DCT MOROK DCT GILIR DCT GEVEA DCT INCUS DCT BALSI DCT RETNO DCT TUPOX DCT MTG DCT DIVKO DCT VATIR DCT PIVUS DCT BODEQ DCT VERSO L129 LUNIK
Aircraft A319/M-SDE3FGHIRWY/LB1

Departure

Time 2026-05-04 10:49
Airport Hamburg Helmut Schmidt Airport (EDDH)

Arrival

Time 2026-05-04 13:15
Airport Palma de Mallorca Airport (LEPA)
Time Latitude Longitude Altitude Speed Heading
2026-05-04 10:32 53.62811 10.00252 48 ft 0 kts 63°
2026-05-04 10:42 53.62806 10.00235 47 ft 3 kts 61°
2026-05-04 10:42 53.62796 10.00205 46 ft 3 kts 56°
2026-05-04 10:43 53.62783 10.00178 45 ft 3 kts 46°
2026-05-04 10:44 53.62752 10.00152 48 ft 0 kts 333°
2026-05-04 10:45 53.62753 10.00151 48 ft 1 kts 333°
2026-05-04 10:46 53.62769 10.00137 48 ft 3 kts 333°
2026-05-04 10:46 53.62796 10.00113 48 ft 6 kts 333°
2026-05-04 10:46 53.62838 10.00071 48 ft 8 kts 319°
2026-05-04 10:46 53.62853 9.99986 48 ft 9 kts 256°
2026-05-04 10:47 53.62821 9.99878 45 ft 13 kts 243°
2026-05-04 10:47 53.62837 9.99770 45 ft 12 kts 340°
2026-05-04 10:47 53.62857 9.99753 44 ft 0 kts 331°
2026-05-04 10:49 53.68311 9.95250 2474 ft 201 kts 333°
2026-05-04 10:49 53.69567 9.94245 2909 ft 222 kts 332°
2026-05-04 10:50 53.70599 9.93310 3263 ft 238 kts 323°
2026-05-04 10:51 53.69865 9.77406 9189 ft 263 kts 234°
2026-05-04 10:52 53.68807 9.74859 10137 ft 267 kts 234°
2026-05-04 10:52 53.67840 9.72022 10533 ft 292 kts 244°
2026-05-04 10:52 53.67072 9.68683 10839 ft 317 kts 250°
2026-05-04 10:54 53.56360 9.49791 15625 ft 357 kts 209°
2026-05-04 10:54 53.54162 9.47791 16319 ft 360 kts 209°
2026-05-04 10:56 53.38335 9.33382 20720 ft 384 kts 209°
2026-05-04 10:56 53.35971 9.31241 21296 ft 387 kts 209°
2026-05-04 10:56 53.33577 9.29136 21842 ft 391 kts 205°
2026-05-04 10:57 53.31006 9.27605 22373 ft 396 kts 195°
2026-05-04 10:57 53.28290 9.26718 22901 ft 400 kts 191°
2026-05-04 10:57 53.25536 9.25905 23427 ft 403 kts 191°
2026-05-04 10:57 53.22761 9.25090 23874 ft 406 kts 191°
2026-05-04 10:58 53.19972 9.24270 24307 ft 408 kts 191°
2026-05-04 10:58 53.17161 9.23443 24740 ft 410 kts 191°
2026-05-04 10:58 53.14379 9.22621 25173 ft 412 kts 192°
2026-05-04 10:58 53.11539 9.21781 25614 ft 414 kts 192°
2026-05-04 10:59 53.08693 9.20935 26044 ft 417 kts 192°
2026-05-04 10:59 53.05832 9.20087 26465 ft 419 kts 192°
2026-05-04 10:59 53.02955 9.19235 26883 ft 421 kts 192°
2026-05-04 10:59 53.00065 9.18384 27286 ft 423 kts 192°
2026-05-04 11:00 52.97157 9.17502 27689 ft 425 kts 194°
2026-05-04 11:01 52.78439 9.02324 30366 ft 433 kts 209°
2026-05-04 11:02 52.75865 9.00088 30837 ft 431 kts 209°
2026-05-04 11:02 52.73215 8.97791 31321 ft 428 kts 209°
2026-05-04 11:05 52.37500 8.66960 37014 ft 409 kts 209°
2026-05-04 11:06 52.34977 8.64803 37313 ft 409 kts 209°
2026-05-04 11:06 52.32457 8.62650 37614 ft 409 kts 209°
2026-05-04 11:06 52.29931 8.60491 37892 ft 409 kts 209°
2026-05-04 11:06 52.27792 8.58669 37975 ft 409 kts 208°
2026-05-04 11:10 51.91137 8.33514 37982 ft 408 kts 204°
2026-05-04 11:12 51.70401 8.19523 37989 ft 409 kts 204°
2026-05-04 11:12 51.65144 8.15994 37993 ft 409 kts 204°
2026-05-04 11:13 51.59887 8.12477 37992 ft 409 kts 204°
2026-05-04 11:13 51.54668 8.09002 37991 ft 409 kts 204°
2026-05-04 11:14 51.49408 8.05514 37993 ft 409 kts 204°
2026-05-04 11:16 51.28708 7.91818 37988 ft 409 kts 204°
2026-05-04 11:16 51.23451 7.88362 37989 ft 409 kts 204°
2026-05-04 11:17 51.18182 7.84916 37994 ft 409 kts 204°
2026-05-04 11:19 50.97514 7.71441 37996 ft 409 kts 204°
2026-05-04 11:19 50.92241 7.68031 37999 ft 409 kts 204°
2026-05-04 11:20 50.87154 7.64743 37999 ft 409 kts 204°
2026-05-04 11:20 50.81898 7.61345 37993 ft 410 kts 204°
2026-05-04 11:22 50.62789 7.52764 37984 ft 414 kts 192°
2026-05-04 11:22 50.60099 7.52075 37989 ft 415 kts 192°
2026-05-04 11:23 50.54564 7.50650 37985 ft 415 kts 192°
2026-05-04 11:25 50.34591 7.45543 38006 ft 415 kts 192°
2026-05-04 11:25 50.28886 7.44099 38012 ft 415 kts 192°
2026-05-04 11:27 50.03240 7.37627 38020 ft 416 kts 192°
2026-05-04 11:28 49.97520 7.36188 38020 ft 416 kts 191°
2026-05-04 11:28 49.91833 7.34777 38022 ft 416 kts 191°
2026-05-04 11:29 49.86100 7.33350 38028 ft 417 kts 192°
2026-05-04 11:29 49.80376 7.31931 38016 ft 416 kts 191°
2026-05-04 11:33 49.41404 7.22332 38018 ft 417 kts 191°
2026-05-04 11:33 49.35668 7.20932 38022 ft 417 kts 191°
2026-05-04 11:34 49.29940 7.19534 38025 ft 417 kts 191°
2026-05-04 11:34 49.24240 7.18155 38025 ft 417 kts 191°
2026-05-04 11:35 49.18493 7.16760 38029 ft 417 kts 191°
2026-05-04 11:35 49.12738 7.15456 38023 ft 419 kts 187°
2026-05-04 11:36 49.06916 7.15672 38019 ft 421 kts 180°
2026-05-04 11:36 49.01060 7.16119 38024 ft 422 kts 180°
2026-05-04 11:37 48.95190 7.16556 38020 ft 422 kts 180°
2026-05-04 11:37 48.89328 7.16986 38025 ft 422 kts 180°
2026-05-04 11:38 48.83454 7.17416 38039 ft 423 kts 180°
2026-05-04 11:38 48.77576 7.17857 38028 ft 423 kts 180°
2026-05-04 11:39 48.71693 7.18293 38027 ft 423 kts 180°
2026-05-04 11:41 48.51101 7.19809 38022 ft 424 kts 180°
2026-05-04 11:41 48.45262 7.19421 38016 ft 418 kts 194°
2026-05-04 11:42 48.39731 7.16770 38017 ft 416 kts 201°
2026-05-04 11:42 48.34285 7.13924 38011 ft 417 kts 201°
2026-05-04 11:43 48.28809 7.11082 38005 ft 417 kts 201°
2026-05-04 11:43 48.23329 7.08247 38000 ft 417 kts 201°
2026-05-04 11:44 48.17846 7.05401 38002 ft 417 kts 201°
2026-05-04 11:44 48.12351 7.02553 38006 ft 418 kts 201°
2026-05-04 11:45 48.06845 6.99710 38008 ft 418 kts 201°
2026-05-04 11:45 48.01337 6.96878 38012 ft 418 kts 201°
2026-05-04 11:46 47.95863 6.94070 38030 ft 418 kts 201°
2026-05-04 11:46 47.90362 6.91248 38030 ft 418 kts 201°
2026-05-04 11:47 47.84856 6.88431 38025 ft 418 kts 201°
2026-05-04 11:47 47.79354 6.85624 38026 ft 418 kts 201°
2026-05-04 11:48 47.73851 6.82822 38026 ft 418 kts 201°
2026-05-04 11:48 47.68342 6.80018 38033 ft 418 kts 201°
2026-05-04 11:49 47.62864 6.77243 38034 ft 418 kts 200°
2026-05-04 11:49 47.57346 6.74454 38039 ft 418 kts 201°
2026-05-04 11:50 47.51851 6.71678 38042 ft 418 kts 201°
2026-05-04 11:50 47.46335 6.68902 38035 ft 418 kts 201°
2026-05-04 11:51 47.40870 6.65958 38039 ft 416 kts 207°
2026-05-04 11:51 47.36174 6.61151 38037 ft 414 kts 221°
2026-05-04 11:52 47.31788 6.55634 38031 ft 414 kts 220°
2026-05-04 11:52 47.27391 6.50138 38041 ft 414 kts 220°
2026-05-04 11:53 47.22993 6.44639 38040 ft 414 kts 220°
2026-05-04 11:53 47.18597 6.39158 38036 ft 414 kts 220°
2026-05-04 11:55 46.99019 6.22948 38023 ft 420 kts 188°
2026-05-04 11:56 46.93186 6.22175 38023 ft 421 kts 188°
2026-05-04 11:56 46.87351 6.21379 38023 ft 421 kts 188°
2026-05-04 11:57 46.81504 6.20595 38025 ft 421 kts 188°
2026-05-04 11:57 46.75662 6.19824 38032 ft 421 kts 188°
2026-05-04 11:58 46.69825 6.19055 38035 ft 421 kts 188°
2026-05-04 11:58 46.63982 6.18283 38045 ft 422 kts 188°
2026-05-04 11:59 46.58134 6.17514 38052 ft 422 kts 188°
2026-05-04 11:59 46.52279 6.16738 38063 ft 422 kts 188°
2026-05-04 12:00 46.46467 6.15966 38071 ft 422 kts 188°
2026-05-04 12:00 46.40622 6.15203 38075 ft 421 kts 188°
2026-05-04 12:01 46.34859 6.14458 38083 ft 421 kts 188°
2026-05-04 12:02 46.14570 6.10909 38090 ft 419 kts 193°
2026-05-04 12:03 46.08800 6.09514 38085 ft 419 kts 192°
2026-05-04 12:03 46.03041 6.08223 38094 ft 419 kts 192°
2026-05-04 12:04 45.97266 6.06963 38095 ft 419 kts 192°
2026-05-04 12:04 45.91504 6.05712 38096 ft 418 kts 192°
2026-05-04 12:05 45.85791 6.04462 38096 ft 418 kts 192°
2026-05-04 12:05 45.80045 6.03185 38093 ft 417 kts 192°
2026-05-04 12:06 45.74303 6.01907 38087 ft 417 kts 192°
2026-05-04 12:06 45.68565 6.00648 38091 ft 417 kts 192°
2026-05-04 12:07 45.62863 5.99398 38091 ft 417 kts 192°
2026-05-04 12:07 45.57134 5.98136 38091 ft 417 kts 192°
2026-05-04 12:08 45.51403 5.96889 38083 ft 416 kts 192°
2026-05-04 12:08 45.45684 5.95584 38076 ft 415 kts 194°
2026-05-04 12:09 45.40044 5.93849 38073 ft 414 kts 197°
2026-05-04 12:09 45.34446 5.91971 38075 ft 413 kts 197°
2026-05-04 12:10 45.28829 5.90150 38066 ft 413 kts 196°
2026-05-04 12:10 45.23243 5.88412 38064 ft 413 kts 196°
2026-05-04 12:11 45.17635 5.86686 38062 ft 413 kts 196°
2026-05-04 12:11 45.12015 5.84960 38063 ft 412 kts 196°
2026-05-04 12:12 45.06401 5.83229 38060 ft 412 kts 196°
2026-05-04 12:12 45.00836 5.81513 38054 ft 412 kts 196°
2026-05-04 12:14 44.78464 5.74634 38060 ft 411 kts 197°
2026-05-04 12:15 44.72957 5.72949 38058 ft 411 kts 197°
2026-05-04 12:15 44.67377 5.71248 38061 ft 410 kts 197°
2026-05-04 12:16 44.61826 5.69557 38053 ft 410 kts 197°
2026-05-04 12:16 44.56245 5.67866 38059 ft 410 kts 197°
2026-05-04 12:17 44.50663 5.66170 38055 ft 410 kts 197°
2026-05-04 12:17 44.45091 5.64486 38048 ft 409 kts 197°
2026-05-04 12:18 44.40447 5.63088 38052 ft 410 kts 197°
2026-05-04 12:18 44.35043 5.60731 38052 ft 405 kts 206°
2026-05-04 12:19 44.29805 5.57850 38050 ft 404 kts 206°
2026-05-04 12:19 44.24569 5.54979 38049 ft 404 kts 206°
2026-05-04 12:20 44.19332 5.52127 38055 ft 404 kts 205°
2026-05-04 12:20 44.14127 5.49302 38053 ft 404 kts 206°
2026-05-04 12:21 44.08894 5.46451 38046 ft 403 kts 206°
2026-05-04 12:21 44.03658 5.43608 38041 ft 403 kts 206°
2026-05-04 12:22 43.98426 5.40769 38037 ft 403 kts 206°
2026-05-04 12:22 43.93205 5.37935 38037 ft 403 kts 206°
2026-05-04 12:23 43.88020 5.35131 38035 ft 402 kts 206°
2026-05-04 12:23 43.82806 5.32317 38034 ft 402 kts 206°
2026-05-04 12:24 43.77597 5.29513 38037 ft 401 kts 206°
2026-05-04 12:24 43.72418 5.26727 38033 ft 400 kts 206°
2026-05-04 12:25 43.67232 5.23934 38035 ft 400 kts 206°
2026-05-04 12:25 43.62046 5.21154 38040 ft 399 kts 206°
2026-05-04 12:26 43.56869 5.18388 38047 ft 398 kts 206°
2026-05-04 12:26 43.51737 5.15653 38039 ft 397 kts 206°
2026-05-04 12:27 43.46582 5.12912 38037 ft 396 kts 206°
2026-05-04 12:27 43.41436 5.10179 38030 ft 396 kts 206°
2026-05-04 12:28 43.36586 5.06771 38027 ft 389 kts 218°
2026-05-04 12:28 43.32124 5.02543 38024 ft 389 kts 218°
2026-05-04 12:29 43.27662 4.98335 38016 ft 389 kts 218°
2026-05-04 12:29 43.23195 4.94135 38012 ft 388 kts 218°
2026-05-04 12:30 43.18760 4.89979 38003 ft 388 kts 217°
2026-05-04 12:30 43.14299 4.85812 37997 ft 388 kts 217°
2026-05-04 12:31 43.09837 4.81642 37989 ft 388 kts 218°
2026-05-04 12:31 43.05357 4.77501 37993 ft 389 kts 214°
2026-05-04 12:32 42.98239 4.72088 37991 ft 390 kts 213°
2026-05-04 12:33 42.93526 4.68512 37984 ft 390 kts 213°
2026-05-04 12:33 42.88773 4.64915 37989 ft 390 kts 213°
2026-05-04 12:34 42.84018 4.61330 37982 ft 390 kts 213°
2026-05-04 12:34 42.79255 4.57743 37983 ft 390 kts 213°
2026-05-04 12:35 42.74498 4.54158 37985 ft 391 kts 213°
2026-05-04 12:35 42.69760 4.50597 37978 ft 390 kts 213°
2026-05-04 12:36 42.64998 4.47030 37972 ft 390 kts 213°
2026-05-04 12:36 42.60240 4.43470 37975 ft 390 kts 213°
2026-05-04 12:37 42.55487 4.39907 37973 ft 390 kts 213°
2026-05-04 12:37 42.50761 4.36386 37974 ft 390 kts 213°
2026-05-04 12:38 42.46007 4.32852 37974 ft 389 kts 213°
2026-05-04 12:38 42.41257 4.29314 37980 ft 389 kts 213°
2026-05-04 12:39 42.36502 4.25795 37975 ft 389 kts 213°
2026-05-04 12:39 42.31753 4.22286 37975 ft 389 kts 213°
2026-05-04 12:40 42.27039 4.18805 37974 ft 388 kts 213°
2026-05-04 12:40 42.22301 4.15305 37971 ft 388 kts 213°
2026-05-04 12:41 42.17556 4.11808 37970 ft 388 kts 213°
2026-05-04 12:41 42.12821 4.08326 37966 ft 388 kts 213°
2026-05-04 12:42 42.08084 4.04842 37968 ft 388 kts 213°
2026-05-04 12:42 42.03347 4.01374 37957 ft 388 kts 213°
2026-05-04 12:43 41.98604 3.97910 37961 ft 388 kts 213°
2026-05-04 12:43 41.93853 3.94471 37956 ft 389 kts 210°
2026-05-04 12:44 41.88587 3.92479 37956 ft 400 kts 196°
2026-05-04 12:44 41.83122 3.91233 37951 ft 400 kts 196°
2026-05-04 12:45 41.77633 3.89964 37951 ft 400 kts 196°
2026-05-04 12:45 41.72145 3.88684 37955 ft 400 kts 196°
2026-05-04 12:46 41.66654 3.87418 37953 ft 400 kts 196°
2026-05-04 12:46 41.61154 3.86171 37956 ft 401 kts 196°
2026-05-04 12:47 41.55671 3.84920 37956 ft 401 kts 196°
2026-05-04 12:47 41.50172 3.83650 37954 ft 401 kts 196°
2026-05-04 12:48 41.44704 3.82391 37960 ft 401 kts 196°
2026-05-04 12:48 41.39200 3.81129 37958 ft 401 kts 196°
2026-05-04 12:49 41.33693 3.79877 37961 ft 401 kts 196°
2026-05-04 12:49 41.28192 3.78618 37967 ft 401 kts 196°
2026-05-04 12:50 41.22689 3.77364 37973 ft 401 kts 196°
2026-05-04 12:50 41.17218 3.76130 37984 ft 401 kts 196°
2026-05-04 12:51 41.11978 3.73991 37986 ft 392 kts 206°
2026-05-04 12:51 41.06893 3.71347 37971 ft 392 kts 206°
2026-05-04 12:52 41.01807 3.68727 37972 ft 392 kts 206°
2026-05-04 12:52 40.96715 3.66114 37969 ft 392 kts 206°
2026-05-04 12:53 40.91664 3.63521 37975 ft 392 kts 206°
2026-05-04 12:53 40.86578 3.60911 37899 ft 391 kts 206°
2026-05-04 12:53 40.84052 3.59618 37281 ft 389 kts 206°
2026-05-04 12:54 40.81525 3.58324 36550 ft 389 kts 206°
2026-05-04 12:54 40.78997 3.57032 35834 ft 389 kts 206°
2026-05-04 12:54 40.76474 3.55745 35128 ft 388 kts 206°
2026-05-04 12:54 40.73954 3.54463 34422 ft 388 kts 205°
2026-05-04 12:55 40.71439 3.53182 33670 ft 387 kts 205°
2026-05-04 12:55 40.68947 3.51914 32764 ft 388 kts 205°
2026-05-04 12:55 40.66422 3.50627 31783 ft 391 kts 205°
2026-05-04 12:55 40.63871 3.49327 30741 ft 396 kts 205°
2026-05-04 12:56 40.61290 3.48013 29611 ft 401 kts 205°
2026-05-04 12:56 40.58671 3.46682 28382 ft 407 kts 205°
2026-05-04 12:56 40.56001 3.45326 27664 ft 412 kts 205°
2026-05-04 12:56 40.53338 3.43978 26822 ft 408 kts 205°
2026-05-04 12:57 40.50691 3.42639 26061 ft 408 kts 205°
2026-05-04 12:57 40.48041 3.41302 25352 ft 407 kts 205°
2026-05-04 12:57 40.45367 3.40102 24669 ft 407 kts 198°
2026-05-04 12:57 40.42558 3.39484 23986 ft 411 kts 189°
2026-05-04 12:58 40.39678 3.39481 23279 ft 414 kts 182°
2026-05-04 12:58 40.36842 3.39644 22499 ft 411 kts 182°
2026-05-04 12:58 40.33991 3.39810 21738 ft 408 kts 182°
2026-05-04 12:58 40.31166 3.39974 20991 ft 405 kts 182°
2026-05-04 12:59 40.28357 3.40136 20256 ft 402 kts 182°
2026-05-04 12:59 40.25573 3.40295 19557 ft 400 kts 182°
2026-05-04 12:59 40.22795 3.40453 18862 ft 398 kts 181°
2026-05-04 12:59 40.20031 3.40610 18183 ft 397 kts 181°
2026-05-04 13:00 40.17274 3.40768 17410 ft 396 kts 181°
2026-05-04 13:00 40.14527 3.40926 16639 ft 392 kts 181°
2026-05-04 13:00 40.11851 3.41080 15901 ft 379 kts 181°
2026-05-04 13:00 40.09254 3.41228 15185 ft 367 kts 181°
2026-05-04 13:01 40.06743 3.41370 14488 ft 356 kts 181°
2026-05-04 13:01 40.04305 3.41505 13804 ft 346 kts 180°
2026-05-04 13:01 40.01963 3.41636 13058 ft 337 kts 180°
2026-05-04 13:01 39.99652 3.41766 12320 ft 329 kts 180°
2026-05-04 13:02 39.97385 3.41892 11591 ft 322 kts 180°
2026-05-04 13:02 39.95167 3.42013 10874 ft 316 kts 180°
2026-05-04 13:02 39.93000 3.42132 10239 ft 308 kts 180°
2026-05-04 13:02 39.90925 3.42251 10031 ft 288 kts 180°
2026-05-04 13:03 39.88967 3.42364 9941 ft 277 kts 180°
2026-05-04 13:03 39.87058 3.42475 9414 ft 272 kts 180°
2026-05-04 13:03 39.85171 3.42582 8762 ft 270 kts 180°
2026-05-04 13:03 39.83299 3.42687 8151 ft 268 kts 181°
2026-05-04 13:04 39.81445 3.42789 7987 ft 268 kts 181°
2026-05-04 13:04 39.79619 3.42519 7618 ft 260 kts 201°
2026-05-04 13:04 39.78101 3.41381 6968 ft 255 kts 223°
2026-05-04 13:04 39.77067 3.39537 6349 ft 253 kts 245°
2026-05-04 13:05 39.76472 3.37417 5974 ft 249 kts 249°
2026-05-04 13:05 39.75889 3.35297 5979 ft 254 kts 249°
2026-05-04 13:05 39.75285 3.33130 5980 ft 256 kts 249°
2026-05-04 13:05 39.74674 3.30953 5973 ft 257 kts 249°
2026-05-04 13:06 39.74061 3.28771 5980 ft 257 kts 249°
2026-05-04 13:06 39.73450 3.26592 5899 ft 255 kts 248°
2026-05-04 13:06 39.73041 3.25132 5607 ft 254 kts 249°
2026-05-04 13:06 39.72448 3.23013 5178 ft 252 kts 249°
2026-05-04 13:07 39.71850 3.20877 4978 ft 251 kts 249°
2026-05-04 13:07 39.71254 3.18748 4615 ft 250 kts 249°
2026-05-04 13:07 39.70658 3.16627 4171 ft 249 kts 248°
2026-05-04 13:07 39.70273 3.15253 4079 ft 240 kts 248°
2026-05-04 13:08 39.70016 3.14329 4037 ft 233 kts 249°
2026-05-04 13:08 39.69481 3.12407 3983 ft 220 kts 249°
2026-05-04 13:08 39.68991 3.10654 3983 ft 206 kts 249°
2026-05-04 13:08 39.68513 3.08953 3995 ft 196 kts 248°
2026-05-04 13:09 39.68071 3.07391 3709 ft 192 kts 248°
2026-05-04 13:09 39.67611 3.05769 3317 ft 190 kts 249°
2026-05-04 13:09 39.67172 3.04221 3144 ft 178 kts 248°
2026-05-04 13:09 39.66742 3.02708 3009 ft 178 kts 248°
2026-05-04 13:10 39.66315 3.01199 2993 ft 177 kts 249°
2026-05-04 13:10 39.65892 2.99701 2991 ft 177 kts 249°
2026-05-04 13:10 39.65466 2.98200 2993 ft 178 kts 248°
2026-05-04 13:10 39.65022 2.96704 2995 ft 178 kts 246°
2026-05-04 13:11 39.64472 2.95270 3006 ft 178 kts 241°
2026-05-04 13:11 39.63870 2.93901 2999 ft 175 kts 239°
2026-05-04 13:11 39.63262 2.92579 2876 ft 167 kts 239°
2026-05-04 13:11 39.62670 2.91310 2701 ft 162 kts 238°
2026-05-04 13:12 39.62086 2.90063 2502 ft 162 kts 238°
2026-05-04 13:12 39.61502 2.88820 2290 ft 160 kts 238°
2026-05-04 13:12 39.60929 2.87603 2079 ft 154 kts 237°
2026-05-04 13:12 39.60408 2.86493 1895 ft 145 kts 237°
2026-05-04 13:13 39.59893 2.85384 1711 ft 141 kts 237°
2026-05-04 13:13 39.59399 2.84292 1452 ft 139 kts 237°
2026-05-04 13:13 39.58867 2.83232 1276 ft 140 kts 237°
2026-05-04 13:13 39.58353 2.82156 1116 ft 140 kts 239°
2026-05-04 13:14 39.57871 2.81086 905 ft 139 kts 237°
2026-05-04 13:14 39.57356 2.80015 682 ft 139 kts 237°
2026-05-04 13:14 39.56847 2.78933 496 ft 140 kts 237°
2026-05-04 13:14 39.56348 2.77864 313 ft 142 kts 237°
2026-05-04 13:15 39.55843 2.76794 145 ft 138 kts 238°
2026-05-04 13:15 39.55339 2.75726 35 ft 134 kts 237°
2026-05-04 13:15 39.54927 2.74863 30 ft 97 kts 239°
2026-05-04 13:15 39.54663 2.74307 38 ft 49 kts 238°
2026-05-04 13:16 39.54553 2.73976 36 ft 30 kts 266°
2026-05-04 13:16 39.54560 2.73751 36 ft 20 kts 294°
2026-05-04 13:16 39.54616 2.73626 36 ft 15 kts 338°
2026-05-04 13:16 39.54700 2.73584 35 ft 12 kts 324°
2026-05-04 13:17 39.54765 2.73546 36 ft 7 kts 19°
2026-05-04 13:17 39.54796 2.73602 36 ft 5 kts 58°
2026-05-04 13:17 39.54798 2.73607 36 ft 0 kts 59°